Weather History for Morristown, NJ

Change the Weather History Date:

Saturday, June 22, 2013

  Actual Average Record
Temperature  
Mean Temperature 70 °F -  
Max Temperature 84 °F 81 °F 100 °F (1953)
Min Temperature 57 °F 58 °F 35 °F (1940)
Cooling Degree Days 6    
Growing Degree Days 20 (Base 50)    
Moisture  
Dew Point 59 °F    
Average Humidity 72    
Maximum Humidity 94    
Minimum Humidity 48    
Precipitation  
Precipitation 0.00 in - - ()
Sea Level Pressure  
Sea Level Pressure 30.23 in    
Wind  
Wind Speed 2 mph (SW)    
Max Wind Speed 13 mph    
Max Gust Speed 18 mph    
Visibility 10 miles    
Events      
Averages and records for this station are not official NWS values.
T = Trace of Precipitation, MM = Missing Value Source: NWS Daily Summary

Daily Weather History Graph

Daily Weather History Graph

Search for Another Location

Airport:

Trip Planner

Search our weather history database for the weather conditions in past years. The results will help you decide how hot, cold, wet, or windy it might be!

Date:

Astronomy

Jun. 22, 2013 Rise Set
Actual Time 5:26 AM EDT 8:32 PM EDT
Civil Twilight 4:53 AM EDT 9:06 PM EDT
Nautical Twilight 4:10 AM EDT 9:49 PM EDT
Astronomical Twilight 3:19 AM EDT 10:39 PM EDT
Moon 7:44 PM EDT (6/22) 4:37 AM EDT (6/22)
Length of Visible Light 16h 13m
Length of Day
15h 06m
Waxing Gibbous, 99% of the Moon is Illuminated
Jun 22
Waxing Gibbous
Jun 23
Full
Jun 30
Last Quarter
Jul 8
New
Jul 15
First Quarter

Hourly Weather History & Observations

Time (EDT) Temp. Heat Index Dew Point Humidity Pressure Visibility Wind Dir Wind Speed Gust Speed Precip Events Conditions
12:15 AM 68.0 °F - 55.4 °F 64% 30.27 in 10.0 mi Calm Calm - N/A   Clear
12:35 AM 68.0 °F - 55.4 °F 64% 30.27 in 10.0 mi Calm Calm - N/A   Clear
12:55 AM 66.2 °F - 57.2 °F 73% 30.26 in 10.0 mi Calm Calm - N/A   Clear
1:15 AM 66.2 °F - 55.4 °F 68% 30.26 in 10.0 mi Calm Calm - N/A   Clear
1:35 AM 66.2 °F - 55.4 °F 68% 30.25 in 10.0 mi Calm Calm - N/A   Clear
1:55 AM 66.2 °F - 55.4 °F 68% 30.25 in 10.0 mi Calm Calm - N/A   Clear
2:15 AM 62.6 °F - 55.4 °F 77% 30.25 in 10.0 mi Calm Calm - N/A   Clear
2:35 AM 60.8 °F - 57.2 °F 88% 30.26 in 10.0 mi Calm Calm - N/A   Clear
2:55 AM 62.6 °F - 57.2 °F 82% 30.26 in 10.0 mi Calm Calm - N/A   Clear
3:15 AM 60.8 °F - 55.4 °F 82% 30.26 in 10.0 mi Calm Calm - N/A   Clear
3:35 AM 60.8 °F - 57.2 °F 88% 30.25 in 10.0 mi Calm Calm - N/A   Clear
3:55 AM 59.0 °F - 55.4 °F 88% 30.25 in 10.0 mi Calm Calm - N/A   Clear
4:15 AM 59.0 °F - 55.4 °F 88% 30.25 in 10.0 mi Calm Calm - N/A   Clear
4:35 AM 57.2 °F - 55.4 °F 94% 30.25 in 10.0 mi Calm Calm - N/A   Clear
4:55 AM 59.0 °F - 55.4 °F 88% 30.25 in 10.0 mi Calm Calm - N/A   Clear
5:15 AM 59.0 °F - 55.4 °F 88% 30.26 in 10.0 mi Calm Calm - N/A   Clear
5:35 AM 57.2 °F - 53.6 °F 88% 30.26 in 10.0 mi Calm Calm - N/A   Clear
5:55 AM 59.0 °F - 55.4 °F 88% 30.27 in 10.0 mi Calm Calm - N/A   Clear
6:15 AM 59.0 °F - 55.4 °F 88% 30.26 in 10.0 mi Calm Calm - N/A   Clear
6:35 AM 60.8 °F - 55.4 °F 82% 30.26 in 10.0 mi Calm Calm - N/A   Clear
6:45 AM 57.2 °F - 55.4 °F 94% 30.26 in 10.0 mi Calm Calm - N/A   Clear
7:45 AM 66.2 °F - 55.4 °F 68% 30.25 in 10.0 mi South 4.6 mph - N/A   Clear
8:45 AM 69.8 °F - 57.2 °F 64% 30.26 in 15.0 mi SSW 6.9 mph - N/A   Mostly Cloudy
9:45 AM 73.4 °F - 60.8 °F 65% 30.26 in 10.0 mi WSW 9.2 mph - N/A   Scattered Clouds
10:45 AM 77.0 °F - 62.6 °F 61% 30.26 in 10.0 mi SSW 10.4 mph - N/A   Scattered Clouds
11:45 AM 78.8 °F - 60.8 °F 54% 30.26 in 15.0 mi WSW 5.8 mph - N/A   Mostly Cloudy
12:45 PM 80.6 °F 81.5 °F 60.8 °F 51% 30.25 in 10.0 mi SW 9.2 mph - N/A   Partly Cloudy
1:45 PM 82.4 °F 82.9 °F 60.8 °F 48% 30.22 in 10.0 mi SSW 8.1 mph 18.4 mph N/A   Partly Cloudy
2:45 PM 82.4 °F 83.4 °F 62.6 °F 51% 30.21 in 10.0 mi SW 8.1 mph 12.7 mph N/A   Partly Cloudy
3:45 PM 82.4 °F 83.4 °F 62.6 °F 51% 30.18 in 10.0 mi SW 12.7 mph 17.3 mph N/A   Scattered Clouds
4:45 PM 84.2 °F 85.6 °F 64.4 °F 51% 30.15 in 10.0 mi SW 10.4 mph 16.1 mph N/A   Scattered Clouds
5:45 PM 84.2 °F 85.0 °F 62.6 °F 48% 30.14 in 10.0 mi SSW 12.7 mph - N/A   Mostly Cloudy
6:45 PM 82.4 °F 83.4 °F 62.6 °F 51% 30.13 in 10.0 mi SW 5.8 mph - N/A   Mostly Cloudy
7:45 PM 80.6 °F 82.3 °F 64.4 °F 58% 30.12 in 10.0 mi SW 5.8 mph - N/A   Partly Cloudy
8:45 PM 77.0 °F - 62.6 °F 61% 30.14 in 10.0 mi South 9.2 mph - N/A   Partly Cloudy
9:45 PM 75.2 °F - 60.8 °F 61% 30.16 in 10.0 mi SSW 3.5 mph - N/A   Scattered Clouds
10:55 PM 71.6 °F - 62.6 °F 73% 30.18 in 10.0 mi Calm Calm - N/A   Clear
11:15 PM 69.8 °F - 62.6 °F 78% 30.18 in 10.0 mi Calm Calm - N/A   Clear
11:35 PM 68.0 °F - 62.6 °F 83% 30.18 in 10.0 mi Calm Calm - N/A   Clear
11:55 PM 68.0 °F - 62.6 °F 83% 30.18 in 10.0 mi Calm Calm - N/A   Clear